星链-30303 (STARLINK-30303 )

导读

STARLINK-30303是美国SpaceX星链互联网项目中的一颗卫星,于2023年8月22日发射入轨。作为星链星座的组成部分,它旨在为全球范围提供低延迟、高速率的卫星互联网服务,服务覆盖偏远地区、海上、空中等传统网络难以覆盖的区域,是美国太空互联网基础设施建设的组成单元。

Basic Information
目录编号:
57677
目录名称:
STARLINK-30303
国际标识:
2023-124Q
轨道中心:
EARTH
卫星名称:
星链-30303
卫星全名:
星链-30303 (STARLINK-30303 )
卫星状态:
在轨 (已飞行1109 天)
发射日期:
2023-08-22 UTC
国别 :
美国 (US)
星等 :
--
Orbit Information
数据来源 国际轨道数据
星历时间: 2026-09-02T05:36:08+0800
2天前
查看轨道信息
半长轴: 6841.402km
偏心率: 0.0001893
轨道倾角: 53.160°
近地点辐角 84.591°
升交点赤经 106.415°
平近点角 275.531°
近地点: 461.969km
远地点: 464.561km
周期: 93.859分钟
每日圈数: 15.342111
Detailed Information
固有亮度:
5
最大亮度:
0.3
卫星平台:
Starlink v2.0 mini
覆盖范围:
全球
运营商:
太空探索技术公司
运营商所在国:
美国
制造商(研发单位):
太空探索技术公司
制造商所在国:
美国
使用方式:
暂无
Satellite Introduction
星链(Starlink)计划是由太空探索技术公司(SpaceX)提出的一个巨型低轨卫星互联网星座项目,计划在2019年至2024年间在太空搭建由约1.2万颗卫星组成的“星链”网络,其中1584颗将部署在地球上空550千米处的近地轨道,并从2020年开始工作。该卫星仍在工作。
2D Orbit Map
3D Orbit Map
Orbit Altitude Analysis Chart
Orbit Inclination Analysis Chart
Orbit Comprehensive Analysis Chart
View Comprehensive Chart